Location: Holiday Acres Laynes 2 Mobile Home Park
(26.7249°N, 81.8671°W)
Time: 13:10:23
(UTC+00:00)

Okean O Rocket - Pass Details

Date: 25 November 2020
Orbit: 622 x 645 km, 98.2° (Epoch: 23 January)

Event Time Altitude Azimuth Distance (km) Brightness Sun altitude
Rises 23:47:58 0° 191° (S) 2,885 5.4 -16.3°
Reaches altitude 10° 23:50:24 10° 203° (SSW) 1,984 4.7 -16.9°
Maximum altitude 23:54:05 27° 262° (W) 1,194 3.8 -17.7°
Drops below altitude 10° 23:57:47 10° 321° (NW) 1,999 4.5 -18.5°
Sets 00:00:15 0° 333° (NNW) 2,912 5.2 -19.0°
